TimeEDT,TemperatureF,Dew PointF,Humidity,Sea Level PressureIn,VisibilityMPH,Wind Direction,Wind SpeedMPH,Gust SpeedMPH,PrecipitationIn,Events,Conditions,WindDirDegrees,DateUTC
12:56 AM,53.1,50.0,89,30.19,6.0,Calm,Calm,-,N/A,,Clear,0,2012-10-24 04:56:00
1:56 AM,53.1,50.0,89,30.18,9.0,Calm,Calm,-,N/A,,Clear,0,2012-10-24 05:56:00
2:56 AM,52.0,48.0,86,30.17,10.0,Calm,Calm,-,N/A,,Clear,0,2012-10-24 06:56:00
4:56 AM,53.1,50.0,89,30.17,8.0,Calm,Calm,-,N/A,,Clear,0,2012-10-24 08:56:00
5:56 AM,53.1,48.9,86,30.19,10.0,Calm,Calm,-,N/A,,Clear,0,2012-10-24 09:56:00
6:56 AM,54.0,50.0,86,30.20,9.0,Calm,Calm,-,N/A,,Clear,0,2012-10-24 10:56:00
7:56 AM,53.1,50.0,89,30.21,5.0,Calm,Calm,-,N/A,,Clear,0,2012-10-24 11:56:00
9:56 AM,68.0,57.9,70,30.21,10.0,Calm,Calm,-,N/A,,Clear,0,2012-10-24 13:56:00
11:56 AM,77.0,61.0,58,30.19,10.0,NW,5.8,-,N/A,,Clear,310,2012-10-24 15:56:00
12:56 PM,79.0,59.0,50,30.17,10.0,NW,4.6,-,N/A,,Clear,310,2012-10-24 16:56:00
1:56 PM,81.0,60.1,49,30.14,9.0,Variable,3.5,-,N/A,,Clear,0,2012-10-24 17:56:00
2:56 PM,81.0,57.9,45,30.12,10.0,West,3.5,-,N/A,,Clear,260,2012-10-24 18:56:00
3:56 PM,81.0,57.9,45,30.12,10.0,Calm,Calm,-,N/A,,Clear,0,2012-10-24 19:56:00
4:56 PM,78.1,62.1,58,30.12,10.0,South,8.1,-,N/A,,Clear,180,2012-10-24 20:56:00
5:56 PM,73.9,62.1,66,30.13,10.0,SSE,5.8,-,N/A,,Clear,160,2012-10-24 21:56:00
6:56 PM,68.0,62.1,81,30.14,10.0,Calm,Calm,-,N/A,,Clear,0,2012-10-24 22:56:00
7:56 PM,68.0,63.0,84,30.15,10.0,South,3.5,-,N/A,,Clear,170,2012-10-24 23:56:00
8:56 PM,66.9,63.0,87,30.16,10.0,South,4.6,-,N/A,,Clear,190,2012-10-25 00:56:00
9:56 PM,63.0,61.0,93,30.16,10.0,South,3.5,-,N/A,,Clear,170,2012-10-25 01:56:00
10:56 PM,64.9,62.1,90,30.16,10.0,Calm,Calm,-,N/A,,Clear,0,2012-10-25 02:56:00
11:19 PM,62.6,60.8,94,30.15,1.8,Calm,Calm,-,N/A,,Clear,0,2012-10-25 03:19:00
11:22 PM,62.6,60.8,94,30.15,0.8,Calm,Calm,-,N/A,,Clear,0,2012-10-25 03:22:00
11:31 PM,62.6,60.8,94,30.15,1.2,Calm,Calm,-,N/A,,Clear,0,2012-10-25 03:31:00
11:43 PM,60.8,57.2,88,30.15,0.8,Calm,Calm,-,0.01,,Clear,0,2012-10-25 03:43:00
11:54 PM,62.6,60.8,94,30.14,2.0,Calm,Calm,-,0.01,,Clear,0,2012-10-25 03:54:00
11:56 PM,63.0,60.1,90,30.15,7.0,Calm,Calm,-,0.01,,Clear,0,2012-10-25 03:56:00